CEB700 RPVO-RPUV

Flight info

Callsign CEB700
Flight time N/A
Altitude 16000
Route DAKOS DCT MALAG
Aircraft A20N/M-SDE2E3FGHIRWXY/LB1

Departure

Time 2026-04-29 13:09
Airport Ormoc Airport (RPVO)

Arrival

Time N/A
Airport Virac Airport (RPUV)
Time Latitude Longitude Altitude Speed Heading
2026-04-29 13:01 11.05544 124.56614 37 ft 0 kts 274°
2026-04-29 13:02 11.05545 124.56606 37 ft 2 kts 274°
2026-04-29 13:02 11.05546 124.56582 37 ft 4 kts 273°
2026-04-29 13:03 11.05558 124.56551 37 ft 5 kts 326°
2026-04-29 13:03 11.05594 124.56549 37 ft 5 kts
2026-04-29 13:03 11.05630 124.56551 38 ft 5 kts
2026-04-29 13:03 11.05668 124.56554 38 ft 5 kts
2026-04-29 13:04 11.05712 124.56557 39 ft 6 kts
2026-04-29 13:04 11.05769 124.56562 40 ft 10 kts
2026-04-29 13:04 11.05853 124.56567 40 ft 16 kts
2026-04-29 13:04 11.05975 124.56576 42 ft 19 kts
2026-04-29 13:05 11.06105 124.56586 44 ft 18 kts
2026-04-29 13:05 11.06228 124.56593 44 ft 17 kts
2026-04-29 13:05 11.06346 124.56602 45 ft 16 kts
2026-04-29 13:05 11.06457 124.56610 47 ft 15 kts
2026-04-29 13:06 11.06560 124.56617 48 ft 14 kts
2026-04-29 13:06 11.06648 124.56624 49 ft 11 kts
2026-04-29 13:06 11.06724 124.56628 50 ft 10 kts 356°
2026-04-29 13:06 11.06771 124.56608 51 ft 6 kts 337°
2026-04-29 13:07 11.06802 124.56607 52 ft 3 kts 12°
2026-04-29 13:07 11.06812 124.56622 52 ft 3 kts 99°
2026-04-29 13:07 11.06787 124.56633 52 ft 5 kts 183°
2026-04-29 13:07 11.06782 124.56632 51 ft 0 kts 184°
2026-04-29 13:08 11.06755 124.56631 51 ft 24 kts 184°
2026-04-29 13:08 11.06292 124.56597 45 ft 107 kts 184°
2026-04-29 13:08 11.05352 124.56534 102 ft 164 kts 184°
2026-04-29 13:08 11.04138 124.56437 479 ft 188 kts 185°
2026-04-29 13:09 11.02848 124.56339 1367 ft 190 kts 184°
2026-04-29 13:09 11.01575 124.56171 2271 ft 191 kts 200°
2026-04-29 13:09 11.00518 124.55404 3203 ft 190 kts 232°
2026-04-29 13:09 10.99977 124.54211 4129 ft 189 kts 260°
2026-04-29 13:10 11.00037 124.52902 5051 ft 188 kts 287°
2026-04-29 13:10 11.00623 124.51821 5916 ft 182 kts 313°
2026-04-29 13:10 11.01582 124.51122 6790 ft 169 kts 339°
2026-04-29 13:10 11.02646 124.50903 7647 ft 150 kts
2026-04-29 13:11 11.03600 124.51076 8165 ft 149 kts 23°
2026-04-29 13:11 11.04478 124.51625 8641 ft 151 kts 45°
2026-04-29 13:11 11.05098 124.52488 9126 ft 152 kts 66°
2026-04-29 13:11 11.05510 124.53473 9607 ft 153 kts 63°
2026-04-29 13:12 11.06117 124.54349 10067 ft 154 kts 41°
2026-04-29 13:12 11.07016 124.54913 10513 ft 156 kts 16°
2026-04-29 13:12 11.08088 124.55045 10960 ft 157 kts 352°
2026-04-29 13:12 11.09160 124.54853 11413 ft 157 kts 347°
2026-04-29 13:13 11.10192 124.54610 11846 ft 158 kts 346°
2026-04-29 13:13 11.11289 124.54346 12297 ft 160 kts 347°
2026-04-29 13:13 11.12357 124.54094 12727 ft 161 kts 347°
2026-04-29 13:13 11.13451 124.53840 13159 ft 162 kts 347°
2026-04-29 13:14 11.14549 124.53587 13584 ft 163 kts 347°
2026-04-29 13:14 11.15610 124.53346 13986 ft 164 kts 347°
2026-04-29 13:14 11.16757 124.53084 14283 ft 175 kts 347°
2026-04-29 13:14 11.17946 124.52813 14707 ft 178 kts 347°
2026-04-29 13:15 11.19169 124.52537 15134 ft 182 kts 347°
2026-04-29 13:15 11.20406 124.52258 15563 ft 186 kts 347°
2026-04-29 13:15 11.21676 124.51971 15950 ft 194 kts 347°
2026-04-29 13:15 11.23077 124.51655 16041 ft 221 kts 347°
2026-04-29 13:16 11.24658 124.51298 16057 ft 251 kts 347°
2026-04-29 13:16 11.26462 124.50890 16058 ft 282 kts 347°
2026-04-29 13:16 11.28440 124.50443 16055 ft 312 kts 347°
2026-04-29 13:16 11.30595 124.49956 16052 ft 339 kts 347°
2026-04-29 13:17 11.32902 124.49435 16048 ft 364 kts 347°
2026-04-29 13:17 11.35300 124.48893 16043 ft 382 kts 347°
2026-04-29 13:17 11.37925 124.48299 16039 ft 386 kts 347°
2026-04-29 13:17 11.40513 124.47714 16038 ft 386 kts 347°
2026-04-29 13:18 11.43110 124.47126 16038 ft 386 kts 347°
2026-04-29 13:18 11.45708 124.46538 16037 ft 386 kts 347°
2026-04-29 13:18 11.48325 124.45946 16037 ft 386 kts 347°
2026-04-29 13:18 11.50935 124.45355 16037 ft 386 kts 347°
2026-04-29 13:19 11.53560 124.44761 16037 ft 386 kts 347°
2026-04-29 13:19 11.56158 124.44173 16037 ft 386 kts 347°
2026-04-29 13:19 11.58781 124.43578 16037 ft 386 kts 347°
2026-04-29 13:19 11.61399 124.42986 16037 ft 386 kts 347°
2026-04-29 13:20 11.63981 124.42401 16037 ft 386 kts 347°
2026-04-29 13:20 11.66601 124.41807 16037 ft 386 kts 347°
2026-04-29 13:20 11.69224 124.41213 16037 ft 386 kts 347°
2026-04-29 13:20 11.71849 124.40617 16037 ft 386 kts 347°
2026-04-29 13:21 11.74427 124.40033 16037 ft 386 kts 347°
2026-04-29 13:21 11.77046 124.39439 16037 ft 386 kts 347°
2026-04-29 13:21 11.79668 124.38844 16037 ft 386 kts 347°
2026-04-29 13:21 11.82264 124.38255 16037 ft 386 kts 347°
2026-04-29 13:22 11.84853 124.37668 16037 ft 386 kts 347°
2026-04-29 13:22 11.87468 124.37074 16037 ft 386 kts 347°
2026-04-29 13:22 11.90108 124.36475 16037 ft 386 kts 347°
2026-04-29 13:22 11.92691 124.35889 16037 ft 386 kts 347°
2026-04-29 13:23 11.95301 124.35295 16037 ft 386 kts 347°
2026-04-29 13:23 11.97893 124.34705 16037 ft 386 kts 347°
2026-04-29 13:23 12.00499 124.34100 16037 ft 386 kts 347°
2026-04-29 13:23 12.03113 124.33493 16037 ft 386 kts 347°
2026-04-29 13:24 12.05740 124.32889 16037 ft 386 kts 347°
2026-04-29 13:24 12.08333 124.32295 16037 ft 386 kts 347°
2026-04-29 13:24 12.10842 124.31723 16037 ft 386 kts 347°
2026-04-29 13:24 12.13532 124.31114 16037 ft 386 kts 347°
2026-04-29 13:25 12.16146 124.30523 16037 ft 386 kts 347°
2026-04-29 13:25 12.21377 124.29337 16037 ft 386 kts 347°
2026-04-29 13:25 12.23978 124.28747 16037 ft 386 kts 347°
2026-04-29 13:26 12.26578 124.28156 16037 ft 386 kts 347°
2026-04-29 13:26 12.29177 124.27566 16037 ft 386 kts 347°
2026-04-29 13:26 12.31788 124.26971 16037 ft 386 kts 347°
2026-04-29 13:26 12.34412 124.26374 16037 ft 386 kts 347°
2026-04-29 13:27 12.37012 124.25839 16037 ft 386 kts 350°
2026-04-29 13:27 12.39682 124.25439 16037 ft 386 kts 353°
2026-04-29 13:27 12.42316 124.25124 16037 ft 386 kts 353°
2026-04-29 13:27 12.44945 124.24825 16034 ft 386 kts 353°
2026-04-29 13:28 12.47628 124.24521 15791 ft 385 kts 353°
2026-04-29 13:28 12.50253 124.24222 15543 ft 383 kts 353°
2026-04-29 13:28 12.52910 124.23918 15291 ft 382 kts 353°
2026-04-29 13:28 12.55514 124.23620 15044 ft 380 kts 353°
2026-04-29 13:29 12.58129 124.23319 14794 ft 379 kts 353°
2026-04-29 13:29 12.60696 124.23024 14541 ft 378 kts 353°
2026-04-29 13:29 12.63322 124.22722 14265 ft 376 kts 353°
2026-04-29 13:29 12.65898 124.22425 13948 ft 375 kts 353°
2026-04-29 13:30 12.68479 124.22128 13529 ft 372 kts 353°
2026-04-29 13:30 12.71010 124.21836 13072 ft 369 kts 353°
2026-04-29 13:30 12.73525 124.21546 12598 ft 366 kts 353°
2026-04-29 13:30 12.76026 124.21258 12116 ft 363 kts 353°
2026-04-29 13:31 12.78513 124.20971 11632 ft 360 kts 353°
2026-04-29 13:31 12.80978 124.20686 11148 ft 358 kts 353°
2026-04-29 13:31 12.83435 124.20403 10665 ft 355 kts 353°
2026-04-29 13:31 12.85849 124.20124 10449 ft 343 kts 353°
2026-04-29 13:32 12.88154 124.19858 10332 ft 328 kts 353°
2026-04-29 13:32 12.90372 124.19602 10222 ft 314 kts 353°
2026-04-29 13:32 12.92464 124.19360 10130 ft 301 kts 353°
2026-04-29 13:32 12.94506 124.19125 9983 ft 291 kts 353°
2026-04-29 13:33 12.96468 124.18898 9694 ft 286 kts 353°
2026-04-29 13:33 12.98437 124.18671 9319 ft 285 kts 353°
2026-04-29 13:33 13.00362 124.18449 8950 ft 283 kts 353°
2026-04-29 13:33 13.02309 124.18224 8580 ft 282 kts 353°
2026-04-29 13:34 13.04220 124.18002 8390 ft 280 kts 353°
2026-04-29 13:34 13.06149 124.17780 8166 ft 280 kts 353°
2026-04-29 13:34 13.08040 124.17561 7900 ft 279 kts 353°
2026-04-29 13:34 13.09942 124.17342 7613 ft 277 kts 353°
2026-04-29 13:35 13.11841 124.17123 7317 ft 276 kts 353°
2026-04-29 13:35 13.13754 124.16903 7015 ft 274 kts 353°
2026-04-29 13:35 13.15616 124.16688 6719 ft 273 kts 353°
2026-04-29 13:35 13.17494 124.16472 6419 ft 272 kts 353°
2026-04-29 13:36 13.19358 124.16257 6121 ft 270 kts 353°
2026-04-29 13:36 13.21200 124.16043 5826 ft 269 kts 353°
2026-04-29 13:36 13.23048 124.15829 5530 ft 267 kts 353°
2026-04-29 13:36 13.24883 124.15617 5236 ft 266 kts 353°
2026-04-29 13:37 13.26713 124.15405 4943 ft 264 kts 353°
2026-04-29 13:37 13.28510 124.15197 4654 ft 263 kts 353°
2026-04-29 13:37 13.30327 124.14986 4363 ft 262 kts 353°
2026-04-29 13:37 13.32121 124.14779 4076 ft 260 kts 353°
2026-04-29 13:38 13.33930 124.14569 3784 ft 259 kts 353°
2026-04-29 13:38 13.35704 124.14364 3499 ft 258 kts 353°
2026-04-29 13:38 13.37464 124.14160 3215 ft 256 kts 353°
2026-04-29 13:38 13.39227 124.13956 2934 ft 255 kts 353°
2026-04-29 13:39 13.40899 124.13762 2893 ft 245 kts 353°
2026-04-29 13:39 13.42552 124.13570 2858 ft 230 kts 353°
2026-04-29 13:39 13.44080 124.13393 2821 ft 217 kts 353°
2026-04-29 13:39 13.45515 124.13227 2812 ft 201 kts 353°
2026-04-29 13:40 13.46811 124.13077 2724 ft 187 kts 353°
2026-04-29 13:40 13.48029 124.12936 2616 ft 170 kts 353°
2026-04-29 13:40 13.49145 124.12806 2467 ft 155 kts 353°
2026-04-29 13:40 13.50162 124.12688 2309 ft 143 kts 353°